Location: Miss�
(46.9484°N, 0.1922°W)
Time: 08:54:51
(UTC+00:00)

USA 307 - Pass Details

Date: 02 March 2021
Orbit: 567 x 577 km, 54.0° (Epoch: 13 April)

Event Time Altitude Azimuth Distance (km) Brightness Sun altitude
Rises 18:12:16 0° 260° (W) 2,782 9.2 -5.0°
Reaches altitude 10° 18:14:37 10° 267° (W) 1,884 7.5 -5.3°
Maximum altitude 18:18:44 45° 340° (NNW) 791 3.8 -6.1°
Drops below altitude 10° 18:22:51 10° 54° (NE) 1,882 5.0 -6.8°
Enters shadow 18:23:52 - 58° (ENE) 2,265 5.4 -6.9°
